Time,TemperatureF,DewpointF,PressureIn,WindDirection,WindDirectionDegrees,WindSpeedMPH,WindSpeedGustMPH,Humidity,HourlyPrecipIn,Conditions,Clouds,dailyrainin,SoftwareType,DateUTC
2013-10-07 00:01:00,45.3,38.2,30.13,NNE,22,2.0,4.0,76,0.00,,,0.00,Weather View 32 v70,2013-10-07 05:01:00,
2013-10-07 00:06:00,45.1,38.3,30.13,NNE,22,2.0,4.0,77,0.00,,,0.00,Weather View 32 v70,2013-10-07 05:06:00,
2013-10-07 00:12:00,44.9,38.1,30.13,North,360,1.0,4.0,77,0.00,,,0.00,Weather View 32 v70,2013-10-07 05:12:00,
2013-10-07 00:17:00,44.7,38.3,30.13,North,360,0.0,4.0,78,0.00,,,0.00,Weather View 32 v70,2013-10-07 05:17:00,
2013-10-07 00:22:00,44.5,40.3,30.14,WSW,247,0.0,4.0,85,0.00,,,0.00,Weather View 32 v70,2013-10-07 05:22:00,
2013-10-07 00:27:00,44.2,40.3,30.14,WSW,247,0.0,4.0,86,0.00,,,0.00,Weather View 32 v70,2013-10-07 05:27:00,
2013-10-07 00:32:00,43.8,39.6,30.14,WSW,247,0.0,4.0,85,0.00,,,0.00,Weather View 32 v70,2013-10-07 05:32:00,
2013-10-07 00:37:00,43.6,40.3,30.13,WSW,247,0.0,4.0,88,0.00,,,0.00,Weather View 32 v70,2013-10-07 05:37:00,
2013-10-07 00:42:00,43.4,39.5,30.13,WSW,247,0.0,4.0,86,0.00,,,0.00,Weather View 32 v70,2013-10-07 05:42:00,
2013-10-07 00:47:00,43.6,39.4,30.13,WSW,247,0.0,4.0,85,0.00,,,0.00,Weather View 32 v70,2013-10-07 05:47:00,
2013-10-07 00:52:00,43.6,38.8,30.13,North,360,2.0,4.0,83,0.00,,,0.00,Weather View 32 v70,2013-10-07 05:52:00,
2013-10-07 00:57:00,43.6,38.1,30.13,North,360,1.0,4.0,81,0.00,,,0.00,Weather View 32 v70,2013-10-07 05:57:00,
2013-10-07 01:02:00,43.5,38.0,30.13,North,360,1.0,4.0,81,0.00,,,0.00,Weather View 32 v70,2013-10-07 06:02:00,
2013-10-07 01:07:00,43.4,38.0,30.13,North,360,0.0,3.0,81,0.00,,,0.00,Weather View 32 v70,2013-10-07 06:07:00,
2013-10-07 01:12:00,43.4,38.0,30.13,North,360,1.0,2.0,81,0.00,,,0.00,Weather View 32 v70,2013-10-07 06:12:00,
2013-10-07 01:17:00,43.6,38.1,30.13,North,360,2.0,2.0,81,0.00,,,0.00,Weather View 32 v70,2013-10-07 06:17:00,
2013-10-07 01:22:00,43.7,38.2,30.13,North,360,1.0,2.0,81,0.00,,,0.00,Weather View 32 v70,2013-10-07 06:22:00,
2013-10-07 01:27:00,43.1,38.6,30.13,North,360,1.0,2.0,84,0.00,,,0.00,Weather View 32 v70,2013-10-07 06:27:00,
2013-10-07 01:32:00,42.9,38.7,30.14,North,360,0.0,2.0,85,0.00,,,0.00,Weather View 32 v70,2013-10-07 06:32:00,
2013-10-07 01:37:00,42.9,38.7,30.14,North,360,0.0,2.0,85,0.00,,,0.00,Weather View 32 v70,2013-10-07 06:37:00,
2013-10-07 01:42:00,42.9,39.9,30.13,North,360,0.0,2.0,89,0.00,,,0.00,Weather View 32 v70,2013-10-07 06:42:00,
2013-10-07 01:47:00,42.9,40.5,30.13,North,360,0.0,2.0,91,0.00,,,0.00,Weather View 32 v70,2013-10-07 06:47:00,
2013-10-07 01:52:00,42.9,40.7,30.13,NE,45,0.0,2.0,92,0.00,,,0.00,Weather View 32 v70,2013-10-07 06:52:00,
2013-10-07 01:57:00,42.8,41.2,30.14,North,360,0.0,3.0,94,0.00,,,0.00,Weather View 32 v70,2013-10-07 06:57:00,
2013-10-07 02:02:00,42.8,40.9,30.13,NE,45,2.0,3.0,93,0.00,,,0.00,Weather View 32 v70,2013-10-07 07:02:00,
2013-10-07 02:07:00,43.0,40.3,30.13,NE,45,2.0,3.0,90,0.00,,,0.00,Weather View 32 v70,2013-10-07 07:07:00,
2013-10-07 02:12:00,43.0,39.7,30.14,NE,45,0.0,3.0,88,0.00,,,0.00,Weather View 32 v70,2013-10-07 07:12:00,
2013-10-07 02:17:00,42.8,39.2,30.14,NE,45,1.0,3.0,87,0.00,,,0.00,Weather View 32 v70,2013-10-07 07:17:00,
2013-10-07 02:22:00,42.9,39.9,30.13,NE,45,1.0,3.0,89,0.00,,,0.00,Weather View 32 v70,2013-10-07 07:22:00,
2013-10-07 02:27:00,42.4,39.1,30.13,NE,45,2.0,3.0,88,0.00,,,0.00,Weather View 32 v70,2013-10-07 07:27:00,
2013-10-07 02:32:00,41.7,39.0,30.13,NE,45,1.0,3.0,90,0.00,,,0.00,Weather View 32 v70,2013-10-07 07:32:00,
2013-10-07 02:37:00,41.5,39.3,30.13,NE,45,1.0,3.0,92,0.00,,,0.00,Weather View 32 v70,2013-10-07 07:37:00,
2013-10-07 02:42:00,41.6,39.4,30.13,NE,45,0.0,3.0,92,0.00,,,0.00,Weather View 32 v70,2013-10-07 07:42:00,
2013-10-07 02:47:00,41.4,39.2,30.13,NE,45,2.0,3.0,92,0.00,,,0.00,Weather View 32 v70,2013-10-07 07:47:00,
2013-10-07 02:52:00,41.0,39.1,30.12,NE,45,0.0,3.0,93,0.00,,,0.00,Weather View 32 v70,2013-10-07 07:52:00,
2013-10-07 02:57:00,41.1,39.5,30.12,NE,45,0.0,2.0,94,0.00,,,0.00,Weather View 32 v70,2013-10-07 07:57:00,
2013-10-07 03:02:00,41.2,39.3,30.12,NE,45,0.0,2.0,93,0.00,,,0.00,Weather View 32 v70,2013-10-07 08:02:00,
2013-10-07 03:07:00,41.4,39.5,30.12,NE,45,0.0,2.0,93,0.00,,,0.00,Weather View 32 v70,2013-10-07 08:07:00,
2013-10-07 03:12:00,41.6,40.3,30.12,NE,45,0.0,2.0,95,0.00,,,0.00,Weather View 32 v70,2013-10-07 08:12:00,
2013-10-07 03:17:00,41.8,40.7,30.12,NE,45,0.0,2.0,96,0.00,,,0.00,Weather View 32 v70,2013-10-07 08:17:00,
2013-10-07 03:22:00,41.6,40.5,30.12,NE,45,0.0,2.0,96,0.00,,,0.00,Weather View 32 v70,2013-10-07 08:22:00,
2013-10-07 03:27:00,41.5,40.4,30.12,NE,45,0.0,2.0,96,0.00,,,0.00,Weather View 32 v70,2013-10-07 08:27:00,
2013-10-07 03:32:00,41.2,40.1,30.12,NE,45,0.0,2.0,96,0.00,,,0.00,Weather View 32 v70,2013-10-07 08:32:00,
2013-10-07 03:37:00,41.2,40.1,30.12,NE,45,0.0,2.0,96,0.00,,,0.00,Weather View 32 v70,2013-10-07 08:37:00,
2013-10-07 03:42:00,41.3,40.2,30.12,NE,45,0.0,2.0,96,0.00,,,0.00,Weather View 32 v70,2013-10-07 08:42:00,
2013-10-07 03:47:00,41.1,40.0,30.12,NE,45,0.0,2.0,96,0.00,,,0.00,Weather View 32 v70,2013-10-07 08:47:00,
2013-10-07 03:52:00,41.4,40.3,30.12,NE,45,0.0,2.0,96,0.00,,,0.00,Weather View 32 v70,2013-10-07 08:52:00,
2013-10-07 03:57:00,41.8,40.7,30.12,NE,45,0.0,2.0,96,0.00,,,0.00,Weather View 32 v70,2013-10-07 08:57:00,
2013-10-07 04:02:00,41.9,40.8,30.12,NE,45,0.0,2.0,96,0.00,,,0.00,Weather View 32 v70,2013-10-07 09:02:00,
2013-10-07 04:07:00,41.9,40.8,30.12,NE,45,0.0,2.0,96,0.00,,,0.00,Weather View 32 v70,2013-10-07 09:07:00,
2013-10-07 04:12:00,41.8,40.7,30.12,NE,45,0.0,1.0,96,0.00,,,0.00,Weather View 32 v70,2013-10-07 09:12:00,
2013-10-07 04:17:00,41.6,40.5,30.12,NE,45,0.0,1.0,96,0.00,,,0.00,Weather View 32 v70,2013-10-07 09:17:00,
2013-10-07 04:22:00,41.5,40.4,30.11,NE,45,0.0,1.0,96,0.00,,,0.00,Weather View 32 v70,2013-10-07 09:22:00,
2013-10-07 04:27:00,41.6,40.5,30.12,NE,45,0.0,1.0,96,0.00,,,0.00,Weather View 32 v70,2013-10-07 09:27:00,
2013-10-07 04:32:00,41.5,40.4,30.11,NE,45,0.0,0.0,96,0.00,,,0.00,Weather View 32 v70,2013-10-07 09:32:00,
2013-10-07 04:37:00,41.2,40.1,30.11,NE,45,0.0,0.0,96,0.00,,,0.00,Weather View 32 v70,2013-10-07 09:37:00,
2013-10-07 04:42:00,41.1,40.0,30.12,NE,45,0.0,0.0,96,0.00,,,0.00,Weather View 32 v70,2013-10-07 09:42:00,
2013-10-07 04:47:00,40.9,39.8,30.12,NE,45,0.0,0.0,96,0.00,,,0.00,Weather View 32 v70,2013-10-07 09:47:00,
2013-10-07 04:52:00,40.9,39.8,30.12,NE,45,0.0,0.0,96,0.00,,,0.00,Weather View 32 v70,2013-10-07 09:52:00,
2013-10-07 04:57:00,41.2,40.1,30.11,NE,45,0.0,0.0,96,0.00,,,0.00,Weather View 32 v70,2013-10-07 09:57:00,
2013-10-07 05:02:00,40.9,39.8,30.11,NE,45,1.0,0.0,96,0.00,,,0.00,Weather View 32 v70,2013-10-07 10:02:00,
2013-10-07 05:07:00,40.5,39.4,30.11,NE,45,2.0,2.0,96,0.00,,,0.00,Weather View 32 v70,2013-10-07 10:07:00,
2013-10-07 05:12:00,40.2,39.1,30.12,NE,45,1.0,2.0,96,0.00,,,0.00,Weather View 32 v70,2013-10-07 10:12:00,
2013-10-07 05:17:00,39.9,38.9,30.12,NE,45,2.0,2.0,96,0.00,,,0.00,Weather View 32 v70,2013-10-07 10:17:00,
2013-10-07 05:22:00,39.8,38.8,30.12,NE,45,1.0,2.0,96,0.00,,,0.00,Weather View 32 v70,2013-10-07 10:22:00,
2013-10-07 05:27:00,39.9,38.9,30.11,NE,45,1.0,2.0,96,0.00,,,0.00,Weather View 32 v70,2013-10-07 10:27:00,
2013-10-07 05:32:00,40.2,39.1,30.11,NE,45,1.0,2.0,96,0.00,,,0.00,Weather View 32 v70,2013-10-07 10:32:00,
2013-10-07 05:37:00,40.3,39.2,30.11,NE,45,0.0,2.0,96,0.00,,,0.00,Weather View 32 v70,2013-10-07 10:37:00,
2013-10-07 05:42:00,40.9,39.8,30.11,NE,45,1.0,2.0,96,0.00,,,0.00,Weather View 32 v70,2013-10-07 10:42:00,
2013-10-07 05:47:00,41.2,40.1,30.12,NE,45,1.0,2.0,96,0.00,,,0.00,Weather View 32 v70,2013-10-07 10:47:00,
2013-10-07 05:52:00,41.2,40.1,30.11,NE,45,1.0,2.0,96,0.00,,,0.00,Weather View 32 v70,2013-10-07 10:52:00,
2013-10-07 05:57:00,40.9,39.8,30.12,NE,45,1.0,2.0,96,0.00,,,0.00,Weather View 32 v70,2013-10-07 10:57:00,
2013-10-07 06:02:00,40.5,39.4,30.12,NE,45,0.0,2.0,96,0.00,,,0.00,Weather View 32 v70,2013-10-07 11:02:00,
2013-10-07 06:07:00,40.7,39.6,30.12,NE,45,1.0,2.0,96,0.00,,,0.00,Weather View 32 v70,2013-10-07 11:07:00,
2013-10-07 06:12:00,40.7,39.6,30.12,NE,45,2.0,2.0,96,0.00,,,0.00,Weather View 32 v70,2013-10-07 11:12:00,
2013-10-07 06:17:00,40.9,39.8,30.12,NE,45,1.0,2.0,96,0.00,,,0.00,Weather View 32 v70,2013-10-07 11:17:00,
2013-10-07 06:22:00,41.0,39.9,30.12,NE,45,0.0,2.0,96,0.00,,,0.00,Weather View 32 v70,2013-10-07 11:22:00,
2013-10-07 06:27:00,41.2,40.1,30.12,NE,45,0.0,2.0,96,0.00,,,0.00,Weather View 32 v70,2013-10-07 11:27:00,
2013-10-07 06:32:00,41.3,40.2,30.12,NE,45,0.0,2.0,96,0.00,,,0.00,Weather View 32 v70,2013-10-07 11:32:00,
2013-10-07 06:37:00,41.4,40.3,30.11,NE,45,0.0,2.0,96,0.00,,,0.00,Weather View 32 v70,2013-10-07 11:37:00,
2013-10-07 06:42:00,41.4,40.3,30.12,NE,45,0.0,2.0,96,0.00,,,0.00,Weather View 32 v70,2013-10-07 11:42:00,
2013-10-07 06:47:00,41.5,40.4,30.12,NE,45,0.0,2.0,96,0.00,,,0.00,Weather View 32 v70,2013-10-07 11:47:00,
2013-10-07 06:52:00,40.9,39.8,30.12,NE,45,2.0,2.0,96,0.00,,,0.00,Weather View 32 v70,2013-10-07 11:52:00,
2013-10-07 06:57:00,40.8,39.7,30.12,NE,45,0.0,2.0,96,0.00,,,0.00,Weather View 32 v70,2013-10-07 11:57:00,
2013-10-07 07:02:00,40.8,39.7,30.12,NE,45,0.0,2.0,96,0.00,,,0.00,Weather View 32 v70,2013-10-07 12:02:00,
2013-10-07 07:07:00,40.8,39.7,30.12,NE,45,0.0,2.0,96,0.00,,,0.00,Weather View 32 v70,2013-10-07 12:07:00,
2013-10-07 07:12:00,40.7,39.6,30.12,NE,45,1.0,2.0,96,0.00,,,0.00,Weather View 32 v70,2013-10-07 12:12:00,
2013-10-07 07:17:00,40.0,39.0,30.12,NE,45,2.0,2.0,96,0.00,,,0.00,Weather View 32 v70,2013-10-07 12:17:00,
2013-10-07 07:22:00,40.4,39.3,30.12,NE,45,0.0,2.0,96,0.00,,,0.00,Weather View 32 v70,2013-10-07 12:22:00,
2013-10-07 07:27:00,40.5,39.4,30.12,NE,45,1.0,2.0,96,0.00,,,0.00,Weather View 32 v70,2013-10-07 12:27:00,
2013-10-07 07:32:00,40.2,39.1,30.12,NE,45,1.0,2.0,96,0.00,,,0.00,Weather View 32 v70,2013-10-07 12:32:00,
2013-10-07 07:37:00,39.8,38.8,30.12,NE,45,2.0,2.0,96,0.00,,,0.00,Weather View 32 v70,2013-10-07 12:37:00,
2013-10-07 07:42:00,39.6,38.6,30.12,NE,45,2.0,2.0,96,0.00,,,0.00,Weather View 32 v70,2013-10-07 12:42:00,
2013-10-07 07:47:00,39.6,38.6,30.12,NE,45,2.0,2.0,96,0.00,,,0.00,Weather View 32 v70,2013-10-07 12:47:00,
2013-10-07 07:52:00,39.6,38.6,30.13,NE,45,1.0,2.0,96,0.00,,,0.00,Weather View 32 v70,2013-10-07 12:52:00,
2013-10-07 07:57:00,39.6,38.6,30.13,NE,45,2.0,2.0,96,0.00,,,0.00,Weather View 32 v70,2013-10-07 12:57:00,
2013-10-07 08:02:00,39.7,38.7,30.13,NE,45,2.0,2.0,96,0.00,,,0.00,Weather View 32 v70,2013-10-07 13:02:00,
2013-10-07 08:07:00,39.9,38.9,30.14,NE,45,1.0,2.0,96,0.00,,,0.00,Weather View 32 v70,2013-10-07 13:07:00,
2013-10-07 08:12:00,40.2,39.1,30.14,NE,45,2.0,2.0,96,0.00,,,0.00,Weather View 32 v70,2013-10-07 13:12:00,
2013-10-07 08:17:00,40.5,39.4,30.14,NE,45,1.0,2.0,96,0.00,,,0.00,Weather View 32 v70,2013-10-07 13:17:00,
2013-10-07 08:22:00,40.9,39.8,30.14,NE,45,1.0,2.0,96,0.00,,,0.00,Weather View 32 v70,2013-10-07 13:22:00,
2013-10-07 08:27:00,41.5,40.4,30.14,NE,45,1.0,2.0,96,0.00,,,0.00,Weather View 32 v70,2013-10-07 13:27:00,
2013-10-07 08:32:00,41.8,40.7,30.14,NE,45,1.0,2.0,96,0.00,,,0.00,Weather View 32 v70,2013-10-07 13:32:00,
2013-10-07 08:37:00,42.5,41.4,30.14,NE,45,0.0,2.0,96,0.00,,,0.00,Weather View 32 v70,2013-10-07 13:37:00,
2013-10-07 08:42:00,42.9,41.3,30.15,NE,45,0.0,2.0,94,0.00,,,0.00,Weather View 32 v70,2013-10-07 13:42:00,
2013-10-07 08:47:00,43.2,41.3,30.14,NE,45,0.0,2.0,93,0.00,,,0.00,Weather View 32 v70,2013-10-07 13:47:00,
2013-10-07 08:52:00,43.9,42.0,30.14,NE,45,1.0,2.0,93,0.00,,,0.00,Weather View 32 v70,2013-10-07 13:52:00,
2013-10-07 08:57:00,44.5,42.0,30.14,NE,45,2.0,2.0,91,0.00,,,0.00,Weather View 32 v70,2013-10-07 13:57:00,
2013-10-07 09:03:00,45.6,42.2,30.14,East,90,1.0,2.0,88,0.00,,,0.00,Weather View 32 v70,2013-10-07 14:03:00,
2013-10-07 09:08:00,46.5,42.8,30.15,ESE,112,1.0,2.0,87,0.00,,,0.00,Weather View 32 v70,2013-10-07 14:08:00,
2013-10-07 09:13:00,47.1,43.4,30.15,ESE,112,2.0,2.0,87,0.00,,,0.00,Weather View 32 v70,2013-10-07 14:13:00,
2013-10-07 09:18:00,47.7,43.7,30.16,ESE,112,2.0,2.0,86,0.00,,,0.00,Weather View 32 v70,2013-10-07 14:18:00,
2013-10-07 09:23:00,48.5,44.2,30.16,ESE,112,1.0,2.0,85,0.00,,,0.00,Weather View 32 v70,2013-10-07 14:23:00,
2013-10-07 09:28:00,49.2,46.4,30.16,SE,135,0.0,3.0,90,0.00,,,0.00,Weather View 32 v70,2013-10-07 14:28:00,
2013-10-07 09:33:00,50.5,46.2,30.17,SE,135,0.0,3.0,85,0.00,,,0.00,Weather View 32 v70,2013-10-07 14:33:00,
2013-10-07 09:38:00,51.4,44.1,30.17,South,180,0.0,3.0,76,0.00,,,0.00,Weather View 32 v70,2013-10-07 14:38:00,
2013-10-07 09:43:00,51.3,43.3,30.17,South,180,1.0,3.0,74,0.00,,,0.00,Weather View 32 v70,2013-10-07 14:43:00,
2013-10-07 09:48:00,51.5,43.1,30.17,South,180,1.0,3.0,73,0.00,,,0.00,Weather View 32 v70,2013-10-07 14:48:00,
2013-10-07 09:53:00,51.7,43.7,30.18,South,180,2.0,3.0,74,0.00,,,0.00,Weather View 32 v70,2013-10-07 14:53:00,
2013-10-07 09:58:00,52.1,44.8,30.18,SSW,202,0.0,3.0,76,0.00,,,0.00,Weather View 32 v70,2013-10-07 14:58:00,
2013-10-07 10:03:00,52.9,44.5,30.18,South,180,2.0,3.0,73,0.00,,,0.00,Weather View 32 v70,2013-10-07 15:03:00,
2013-10-07 10:08:00,52.9,44.5,30.18,South,180,1.0,3.0,73,0.00,,,0.00,Weather View 32 v70,2013-10-07 15:08:00,
2013-10-07 10:13:00,53.9,45.1,30.18,SSE,157,1.0,3.0,72,0.00,,,0.00,Weather View 32 v70,2013-10-07 15:13:00,
2013-10-07 10:18:00,54.9,44.9,30.18,ESE,112,2.0,3.0,69,0.00,,,0.00,Weather View 32 v70,2013-10-07 15:18:00,
2013-10-07 10:23:00,55.8,45.0,30.18,South,180,1.0,3.0,67,0.00,,,0.00,Weather View 32 v70,2013-10-07 15:23:00,
2013-10-07 10:28:00,56.5,45.7,30.18,SE,135,2.0,2.0,67,0.00,,,0.00,Weather View 32 v70,2013-10-07 15:28:00,
2013-10-07 10:33:00,57.2,45.5,30.18,SSW,202,2.0,2.0,65,0.00,,,0.00,Weather View 32 v70,2013-10-07 15:33:00,
2013-10-07 10:38:00,57.6,45.5,30.18,SSW,202,0.0,2.0,64,0.00,,,0.00,Weather View 32 v70,2013-10-07 15:38:00,
2013-10-07 10:43:00,58.9,46.7,30.18,SSW,202,0.0,2.0,64,0.00,,,0.00,Weather View 32 v70,2013-10-07 15:43:00,
2013-10-07 10:48:00,60.2,47.5,30.18,SSW,202,0.0,2.0,63,0.00,,,0.00,Weather View 32 v70,2013-10-07 15:48:00,
2013-10-07 10:53:00,59.6,47.8,30.18,SSW,202,2.0,2.0,65,0.00,,,0.00,Weather View 32 v70,2013-10-07 15:53:00,
2013-10-07 10:58:00,59.5,47.3,30.18,SSW,202,0.0,2.0,64,0.00,,,0.00,Weather View 32 v70,2013-10-07 15:58:00,
2013-10-07 11:03:00,59.6,47.0,30.19,SSW,202,0.0,2.0,63,0.00,,,0.00,Weather View 32 v70,2013-10-07 16:03:00,
2013-10-07 11:08:00,59.9,47.7,30.18,SSW,202,2.0,2.0,64,0.00,,,0.00,Weather View 32 v70,2013-10-07 16:08:00,
2013-10-07 11:13:00,60.1,47.0,30.19,SE,135,1.0,4.0,62,0.00,,,0.00,Weather View 32 v70,2013-10-07 16:13:00,
2013-10-07 11:18:00,61.3,47.7,30.19,South,180,1.0,4.0,61,0.00,,,0.00,Weather View 32 v70,2013-10-07 16:18:00,
2013-10-07 11:23:00,61.6,46.6,30.19,SE,135,0.0,4.0,58,0.00,,,0.00,Weather View 32 v70,2013-10-07 16:23:00,
2013-10-07 11:28:00,62.3,49.5,30.19,East,90,1.0,4.0,63,0.00,,,0.00,Weather View 32 v70,2013-10-07 16:28:00,
2013-10-07 11:34:00,62.2,46.7,30.19,East,90,2.0,4.0,57,0.00,,,0.00,Weather View 32 v70,2013-10-07 16:34:00,
2013-10-07 11:39:00,61.9,47.8,30.18,East,90,3.0,6.0,60,0.00,,,0.00,Weather View 32 v70,2013-10-07 16:39:00,
2013-10-07 11:55:00,63.3,47.3,30.18,East,90,1.0,6.0,56,0.00,,,0.00,Weather View 32 v70,2013-10-07 16:55:00,
2013-10-07 12:20:00,66.4,49.2,30.18,ESE,112,1.0,6.0,54,0.00,,,0.00,Weather View 32 v70,2013-10-07 17:20:00,
2013-10-07 12:25:00,66.9,50.2,30.18,East,90,0.0,6.0,55,0.00,,,0.00,Weather View 32 v70,2013-10-07 17:25:00,
2013-10-07 12:30:00,67.8,49.5,30.18,SE,135,2.0,6.0,52,0.00,,,0.00,Weather View 32 v70,2013-10-07 17:30:00,
2013-10-07 12:35:00,68.8,48.3,30.18,SSW,202,2.0,6.0,48,0.00,,,0.00,Weather View 32 v70,2013-10-07 17:35:00,
2013-10-07 12:40:00,68.4,49.5,30.18,South,180,1.0,6.0,51,0.00,,,0.00,Weather View 32 v70,2013-10-07 17:40:00,
2013-10-07 12:45:00,68.3,48.3,30.18,SSW,202,1.0,6.0,49,0.00,,,0.00,Weather View 32 v70,2013-10-07 17:45:00,
2013-10-07 12:50:00,68.8,47.1,30.18,South,180,2.0,3.0,46,0.00,,,0.00,Weather View 32 v70,2013-10-07 17:50:00,
2013-10-07 12:55:00,69.2,46.9,30.18,SE,135,2.0,4.0,45,0.00,,,0.00,Weather View 32 v70,2013-10-07 17:55:00,
2013-10-07 13:06:00,70.2,48.4,30.17,ESE,112,4.0,4.0,46,0.00,,,0.00,Weather View 32 v70,2013-10-07 18:06:00,
2013-10-07 14:50:00,72.3,43.0,30.14,WSW,247,4.0,4.0,35,0.00,,,0.00,Weather View 32 v70,2013-10-07 19:50:00,
2013-10-07 14:56:00,72.5,42.5,30.14,SW,225,4.0,9.0,34,0.00,,,0.00,Weather View 32 v70,2013-10-07 19:56:00,
2013-10-07 15:01:00,72.4,43.1,30.14,SSW,202,2.0,11.0,35,0.00,,,0.00,Weather View 32 v70,2013-10-07 20:01:00,
2013-10-07 15:06:00,73.1,43.7,30.14,SW,225,0.0,11.0,35,0.00,,,0.00,Weather View 32 v70,2013-10-07 20:06:00,
2013-10-07 15:11:00,73.8,42.0,30.14,East,90,2.0,11.0,32,0.00,,,0.00,Weather View 32 v70,2013-10-07 20:11:00,
2013-10-07 15:16:00,74.4,43.3,30.14,SW,225,1.0,11.0,33,0.00,,,0.00,Weather View 32 v70,2013-10-07 20:16:00,
2013-10-07 15:21:00,74.1,42.3,30.14,West,270,7.0,11.0,32,0.00,,,0.00,Weather View 32 v70,2013-10-07 20:21:00,
2013-10-07 15:26:00,73.6,41.8,30.14,SW,225,0.0,11.0,32,0.00,,,0.00,Weather View 32 v70,2013-10-07 20:26:00,
2013-10-07 15:31:00,73.9,43.7,30.14,SW,225,2.0,11.0,34,0.00,,,0.00,Weather View 32 v70,2013-10-07 20:31:00,
2013-10-07 15:36:00,74.1,42.3,30.14,North,360,1.0,11.0,32,0.00,,,0.00,Weather View 32 v70,2013-10-07 20:36:00,
2013-10-07 15:41:00,74.5,42.6,30.14,WSW,247,2.0,11.0,32,0.00,,,0.00,Weather View 32 v70,2013-10-07 20:41:00,
2013-10-07 15:46:00,74.3,42.5,30.14,SW,225,1.0,11.0,32,0.00,,,0.00,Weather View 32 v70,2013-10-07 20:46:00,
2013-10-07 15:51:00,74.9,42.1,30.13,SW,225,1.0,11.0,31,0.00,,,0.00,Weather View 32 v70,2013-10-07 20:51:00,
2013-10-07 15:56:00,75.1,43.1,30.13,WSW,247,4.0,11.0,32,0.00,,,0.00,Weather View 32 v70,2013-10-07 20:56:00,
2013-10-07 16:01:00,74.5,45.0,30.13,SW,225,2.0,9.0,35,0.00,,,0.00,Weather View 32 v70,2013-10-07 21:01:00,
2013-10-07 16:06:00,74.9,43.0,30.13,ENE,67,0.0,9.0,32,0.00,,,0.00,Weather View 32 v70,2013-10-07 21:06:00,
2013-10-07 16:11:00,75.2,43.2,30.13,SSW,202,4.0,9.0,32,0.00,,,0.00,Weather View 32 v70,2013-10-07 21:11:00,
2013-10-07 16:16:00,74.8,42.9,30.13,SW,225,3.0,9.0,32,0.00,,,0.00,Weather View 32 v70,2013-10-07 21:16:00,
2013-10-07 16:21:00,74.6,42.7,30.13,SW,225,1.0,9.0,32,0.00,,,0.00,Weather View 32 v70,2013-10-07 21:21:00,
2013-10-07 16:26:00,75.3,44.1,30.13,SSW,202,2.0,9.0,33,0.00,,,0.00,Weather View 32 v70,2013-10-07 21:26:00,
2013-10-07 16:31:00,75.9,44.6,30.13,SW,225,0.0,9.0,33,0.00,,,0.00,Weather View 32 v70,2013-10-07 21:31:00,
2013-10-07 16:36:00,75.9,44.6,30.13,South,180,1.0,9.0,33,0.00,,,0.00,Weather View 32 v70,2013-10-07 21:36:00,
2013-10-07 16:41:00,76.3,45.8,30.13,SW,225,1.0,8.0,34,0.00,,,0.00,Weather View 32 v70,2013-10-07 21:41:00,
2013-10-07 16:46:00,76.5,44.4,30.13,SSW,202,0.0,8.0,32,0.00,,,0.00,Weather View 32 v70,2013-10-07 21:46:00,
2013-10-07 16:51:00,77.1,46.5,30.13,SSW,202,0.0,8.0,34,0.00,,,0.00,Weather View 32 v70,2013-10-07 21:51:00,
2013-10-07 16:56:00,77.2,44.1,30.13,SE,135,1.0,8.0,31,0.00,,,0.00,Weather View 32 v70,2013-10-07 21:56:00,
2013-10-07 17:01:00,77.1,47.3,30.13,SW,225,1.0,7.0,35,0.00,,,0.00,Weather View 32 v70,2013-10-07 22:01:00,
2013-10-07 17:06:00,76.9,43.9,30.13,SW,225,1.0,7.0,31,0.00,,,0.00,Weather View 32 v70,2013-10-07 22:06:00,
2013-10-07 17:11:00,76.9,44.7,30.12,SW,225,1.0,6.0,32,0.00,,,0.00,Weather View 32 v70,2013-10-07 22:11:00,
2013-10-07 17:16:00,76.9,47.1,30.12,SSW,202,0.0,6.0,35,0.00,,,0.00,Weather View 32 v70,2013-10-07 22:16:00,
2013-10-07 17:21:00,76.8,43.8,30.12,South,180,1.0,6.0,31,0.00,,,0.00,Weather View 32 v70,2013-10-07 22:21:00,
2013-10-07 17:26:00,76.5,45.2,30.12,East,90,0.0,6.0,33,0.00,,,0.00,Weather View 32 v70,2013-10-07 22:26:00,
2013-10-07 17:31:00,76.5,44.4,30.12,East,90,0.0,6.0,32,0.00,,,0.00,Weather View 32 v70,2013-10-07 22:31:00,
2013-10-07 17:36:00,76.3,44.2,30.12,SE,135,0.0,6.0,32,0.00,,,0.00,Weather View 32 v70,2013-10-07 22:36:00,
2013-10-07 17:41:00,76.9,46.3,30.12,SE,135,2.0,6.0,34,0.00,,,0.00,Weather View 32 v70,2013-10-07 22:41:00,
2013-10-07 17:46:00,77.1,46.5,30.12,SE,135,0.0,6.0,34,0.00,,,0.00,Weather View 32 v70,2013-10-07 22:46:00,
2013-10-07 17:51:00,77.6,46.1,30.12,South,180,0.0,6.0,33,0.00,,,0.00,Weather View 32 v70,2013-10-07 22:51:00,
2013-10-07 17:56:00,77.9,46.4,30.12,South,180,0.0,6.0,33,0.00,,,0.00,Weather View 32 v70,2013-10-07 22:56:00,
2013-10-07 18:01:00,76.3,44.2,30.12,SE,135,2.0,6.0,32,0.00,,,0.00,Weather View 32 v70,2013-10-07 23:01:00,
2013-10-07 18:06:00,75.9,45.4,30.12,ESE,112,2.0,6.0,34,0.00,,,0.00,Weather View 32 v70,2013-10-07 23:06:00,
2013-10-07 18:11:00,75.5,45.1,30.12,ESE,112,0.0,6.0,34,0.00,,,0.00,Weather View 32 v70,2013-10-07 23:11:00,
2013-10-07 18:16:00,74.6,45.1,30.12,East,90,1.0,6.0,35,0.00,,,0.00,Weather View 32 v70,2013-10-07 23:16:00,
2013-10-07 18:22:00,74.1,46.1,30.12,SE,135,2.0,4.0,37,0.00,,,0.00,Weather View 32 v70,2013-10-07 23:22:00,
2013-10-07 18:27:00,73.3,45.4,30.12,SE,135,1.0,4.0,37,0.00,,,0.00,Weather View 32 v70,2013-10-07 23:27:00,
2013-10-07 18:32:00,72.3,45.2,30.12,SE,135,1.0,4.0,38,0.00,,,0.00,Weather View 32 v70,2013-10-07 23:32:00,
2013-10-07 18:37:00,71.7,45.4,30.12,SE,135,1.0,4.0,39,0.00,,,0.00,Weather View 32 v70,2013-10-07 23:37:00,
2013-10-07 18:42:00,70.9,45.3,30.12,SE,135,2.0,4.0,40,0.00,,,0.00,Weather View 32 v70,2013-10-07 23:42:00,
2013-10-07 18:47:00,70.2,45.3,30.12,SSE,157,1.0,4.0,41,0.00,,,0.00,Weather View 32 v70,2013-10-07 23:47:00,
2013-10-07 18:52:00,69.6,45.4,30.11,SE,135,1.0,4.0,42,0.00,,,0.00,Weather View 32 v70,2013-10-07 23:52:00,
2013-10-07 18:57:00,68.8,45.3,30.11,ESE,112,2.0,4.0,43,0.00,,,0.00,Weather View 32 v70,2013-10-07 23:57:00,
2013-10-07 19:02:00,68.1,45.3,30.11,ESE,112,3.0,4.0,44,0.00,,,0.00,Weather View 32 v70,2013-10-08 00:02:00,
2013-10-07 19:07:00,67.6,45.4,30.11,East,90,1.0,4.0,45,0.00,,,0.00,Weather View 32 v70,2013-10-08 00:07:00,
2013-10-07 19:12:00,67.3,45.8,30.11,ESE,112,3.0,5.0,46,0.00,,,0.00,Weather View 32 v70,2013-10-08 00:12:00,
2013-10-07 19:17:00,66.9,46.0,30.11,ESE,112,2.0,5.0,47,0.00,,,0.00,Weather View 32 v70,2013-10-08 00:17:00,
2013-10-07 19:22:00,66.6,45.7,30.11,SE,135,2.0,5.0,47,0.00,,,0.00,Weather View 32 v70,2013-10-08 00:22:00,
2013-10-07 19:27:00,66.3,46.0,30.10,ESE,112,4.0,5.0,48,0.00,,,0.00,Weather View 32 v70,2013-10-08 00:27:00,
2013-10-07 19:32:00,66.1,45.8,30.11,East,90,2.0,5.0,48,0.00,,,0.00,Weather View 32 v70,2013-10-08 00:32:00,
2013-10-07 19:37:00,65.8,46.1,30.10,ESE,112,4.0,5.0,49,0.00,,,0.00,Weather View 32 v70,2013-10-08 00:37:00,
2013-10-07 19:42:00,65.6,45.9,30.11,ESE,112,3.0,5.0,49,0.00,,,0.00,Weather View 32 v70,2013-10-08 00:42:00,
2013-10-07 19:47:00,65.3,45.6,30.11,ESE,112,2.0,5.0,49,0.00,,,0.00,Weather View 32 v70,2013-10-08 00:47:00,
2013-10-07 19:52:00,65.1,46.0,30.10,ESE,112,2.0,5.0,50,0.00,,,0.00,Weather View 32 v70,2013-10-08 00:52:00,
2013-10-07 19:57:00,64.8,46.2,30.10,East,90,3.0,5.0,51,0.00,,,0.00,Weather View 32 v70,2013-10-08 00:57:00,
2013-10-07 20:02:00,64.7,46.1,30.10,East,90,2.0,5.0,51,0.00,,,0.00,Weather View 32 v70,2013-10-08 01:02:00,
2013-10-07 20:07:00,64.4,45.8,30.10,East,90,2.0,5.0,51,0.00,,,0.00,Weather View 32 v70,2013-10-08 01:07:00,
2013-10-07 20:12:00,64.3,45.7,30.10,ESE,112,2.0,5.0,51,0.00,,,0.00,Weather View 32 v70,2013-10-08 01:12:00,
2013-10-07 20:17:00,63.9,45.9,30.10,ESE,112,3.0,5.0,52,0.00,,,0.00,Weather View 32 v70,2013-10-08 01:17:00,
2013-10-07 20:22:00,63.8,45.8,30.10,ESE,112,2.0,5.0,52,0.00,,,0.00,Weather View 32 v70,2013-10-08 01:22:00,
2013-10-07 20:27:00,63.6,45.6,30.10,East,90,3.0,5.0,52,0.00,,,0.00,Weather View 32 v70,2013-10-08 01:27:00,
2013-10-07 20:32:00,63.4,45.9,30.10,ESE,112,2.0,5.0,53,0.00,,,0.00,Weather View 32 v70,2013-10-08 01:32:00,
2013-10-07 20:37:00,63.3,45.8,30.10,ESE,112,2.0,5.0,53,0.00,,,0.00,Weather View 32 v70,2013-10-08 01:37:00,
2013-10-07 20:42:00,63.3,45.8,30.10,ESE,112,6.0,6.0,53,0.00,,,0.00,Weather View 32 v70,2013-10-08 01:42:00,
2013-10-07 20:47:00,63.3,45.3,30.10,ESE,112,3.0,6.0,52,0.00,,,0.00,Weather View 32 v70,2013-10-08 01:47:00,
2013-10-07 20:53:00,63.1,45.6,30.10,ESE,112,4.0,6.0,53,0.00,,,0.00,Weather View 32 v70,2013-10-08 01:53:00,
2013-10-07 20:58:00,62.8,45.4,30.10,ESE,112,3.0,6.0,53,0.00,,,0.00,Weather View 32 v70,2013-10-08 01:58:00,
2013-10-07 21:03:00,62.3,45.4,30.10,ESE,112,4.0,6.0,54,0.00,,,0.00,Weather View 32 v70,2013-10-08 02:03:00,
2013-10-07 21:08:00,61.9,45.5,30.10,ESE,112,2.0,6.0,55,0.00,,,0.00,Weather View 32 v70,2013-10-08 02:08:00,
2013-10-07 21:13:00,61.6,45.7,30.10,ESE,112,4.0,6.0,56,0.00,,,0.00,Weather View 32 v70,2013-10-08 02:13:00,
2013-10-07 21:18:00,61.2,45.8,30.10,ESE,112,3.0,6.0,57,0.00,,,0.00,Weather View 32 v70,2013-10-08 02:18:00,
2013-10-07 21:23:00,60.9,46.0,30.10,ESE,112,4.0,6.0,58,0.00,,,0.00,Weather View 32 v70,2013-10-08 02:23:00,
2013-10-07 21:28:00,60.9,46.0,30.10,ESE,112,4.0,6.0,58,0.00,,,0.00,Weather View 32 v70,2013-10-08 02:28:00,
2013-10-07 21:33:00,60.6,45.7,30.10,ESE,112,3.0,6.0,58,0.00,,,0.00,Weather View 32 v70,2013-10-08 02:33:00,
2013-10-07 21:38:00,60.5,46.1,30.10,ESE,112,4.0,6.0,59,0.00,,,0.00,Weather View 32 v70,2013-10-08 02:38:00,
2013-10-07 21:43:00,60.3,45.9,30.10,SE,135,3.0,6.0,59,0.00,,,0.00,Weather View 32 v70,2013-10-08 02:43:00,
2013-10-07 21:48:00,59.9,45.9,30.10,SE,135,4.0,6.0,60,0.00,,,0.00,Weather View 32 v70,2013-10-08 02:48:00,
2013-10-07 21:53:00,59.7,46.2,30.10,ESE,112,4.0,6.0,61,0.00,,,0.00,Weather View 32 v70,2013-10-08 02:53:00,
2013-10-07 21:58:00,59.6,46.1,30.10,SE,135,4.0,7.0,61,0.00,,,0.00,Weather View 32 v70,2013-10-08 02:58:00,
2013-10-07 22:03:00,59.4,46.3,30.10,ESE,112,6.0,7.0,62,0.00,,,0.00,Weather View 32 v70,2013-10-08 03:03:00,
2013-10-07 22:08:00,59.2,46.2,30.10,ESE,112,6.0,7.0,62,0.00,,,0.00,Weather View 32 v70,2013-10-08 03:08:00,
2013-10-07 22:13:00,59.3,46.3,30.10,SE,135,3.0,7.0,62,0.00,,,0.00,Weather View 32 v70,2013-10-08 03:13:00,
2013-10-07 22:18:00,59.0,46.4,30.10,ESE,112,5.0,7.0,63,0.00,,,0.00,Weather View 32 v70,2013-10-08 03:18:00,
2013-10-07 22:23:00,59.1,46.1,30.10,SE,135,4.0,7.0,62,0.00,,,0.00,Weather View 32 v70,2013-10-08 03:23:00,
2013-10-07 22:28:00,59.6,45.7,30.10,ESE,112,4.0,8.0,60,0.07,,,0.00,Weather View 32 v70,2013-10-08 03:28:00,
2013-10-07 22:33:00,59.7,45.3,30.09,SE,135,4.0,9.0,59,0.00,,,0.00,Weather View 32 v70,2013-10-08 03:33:00,
2013-10-07 22:38:00,59.8,45.0,30.09,East,90,3.0,9.0,58,0.00,,,0.00,Weather View 32 v70,2013-10-08 03:38:00,
2013-10-07 22:43:00,59.9,45.1,30.09,SE,135,4.0,9.0,58,0.00,,,0.00,Weather View 32 v70,2013-10-08 03:43:00,
2013-10-07 22:48:00,59.7,45.3,30.09,SE,135,3.0,9.0,59,0.00,,,0.00,Weather View 32 v70,2013-10-08 03:48:00,
2013-10-07 22:53:00,59.4,45.0,30.09,ESE,112,5.0,9.0,59,0.00,,,0.00,Weather View 32 v70,2013-10-08 03:53:00,
2013-10-07 22:58:00,59.2,44.8,30.09,SE,135,7.0,9.0,59,0.00,,,0.00,Weather View 32 v70,2013-10-08 03:58:00,
2013-10-07 23:01:00,59.2,44.8,30.09,SE,135,5.0,9.0,59,0.00,,,0.00,Weather View 32 v70,2013-10-08 04:01:00,
2013-10-07 23:04:00,59.1,44.8,30.09,SE,135,5.0,9.0,59,0.00,,,0.00,Weather View 32 v70,2013-10-08 04:04:00,
2013-10-07 23:09:00,59.1,44.8,30.09,SE,135,6.0,11.0,59,0.00,,,0.00,Weather View 32 v70,2013-10-08 04:09:00,
2013-10-07 23:14:00,58.9,44.6,30.09,ESE,112,4.0,11.0,59,0.00,,,0.00,Weather View 32 v70,2013-10-08 04:14:00,
2013-10-07 23:19:00,58.8,44.5,30.09,ESE,112,4.0,11.0,59,0.00,,,0.00,Weather View 32 v70,2013-10-08 04:19:00,
2013-10-07 23:24:00,58.9,44.1,30.09,ESE,112,6.0,11.0,58,0.00,,,0.00,Weather View 32 v70,2013-10-08 04:24:00,
2013-10-07 23:29:00,58.9,44.1,30.09,ESE,112,5.0,11.0,58,0.00,,,0.00,Weather View 32 v70,2013-10-08 04:29:00,
2013-10-07 23:34:00,58.9,44.1,30.09,SE,135,6.0,11.0,58,0.00,,,0.00,Weather View 32 v70,2013-10-08 04:34:00,
2013-10-07 23:39:00,58.6,44.3,30.08,ESE,112,6.0,11.0,59,0.00,,,0.00,Weather View 32 v70,2013-10-08 04:39:00,
2013-10-07 23:44:00,58.6,43.8,30.08,SE,135,4.0,12.0,58,0.00,,,0.00,Weather View 32 v70,2013-10-08 04:44:00,
2013-10-07 23:49:00,58.6,43.8,30.08,ESE,112,6.0,12.0,58,0.00,,,0.00,Weather View 32 v70,2013-10-08 04:49:00,
2013-10-07 23:54:00,58.5,43.7,30.08,ESE,112,6.0,12.0,58,0.00,,,0.00,Weather View 32 v70,2013-10-08 04:54:00,
2013-10-07 23:59:00,58.4,43.6,30.08,SE,135,6.0,12.0,58,0.00,,,0.00,Weather View 32 v70,2013-10-08 04:59:00,